Powrót do katalogu

CZ-6A DEB

AktywnySSO
NORAD 56594·DEBRIS·🇨🇳 China

Wystrzelony Nov 11, 2022 z Taiyuan Satellite Launch Center

Loading…

Następne Przeloty (najbliższe 24 godziny)

TLE

ŚwieżeSource: Space-Track

Epoka: Sep 13, 2026, 10:49 UTC

1 56594U 22151ADS 26256.45076679  .00000136  00000-0  92691-4 0  9996
2 56594  98.8046 261.0798 0028198  14.8916 345.3082 14.14835749179970

Śledź CZ-6A DEB w czasie rzeczywistym z AllMySat

Download on the App Store